Weather History for KICL - December, 2013

Change the Weather History Date:

Monday, December 23, 2013

  Actual Average Record
Temperature  
Mean Temperature -6 °F -  
Max Temperature 8 °F 33 °F 46 °F (2005)
Min Temperature -20 °F 14 °F -20 °F (2013)
Degree Days  
Heating Degree Days 71    
Moisture  
Dew Point -8 °F    
Average Humidity 70    
Maximum Humidity 84    
Minimum Humidity 52    
Precipitation  
Precipitation 0.00 in - - ()
Sea Level Pressure  
Sea Level Pressure 30.55 in    
Wind  
Wind Speed 9 mph (NW)    
Max Wind Speed 16 mph    
Max Gust Speed 24 mph    
Visibility 10 miles    
Events Snow    
Averages and records for this station are not official NWS values.
T = Trace of Precipitation, MM = Missing Value Source: NWS Daily Summary

Daily Weather History Graph

Daily Weather History Graph

Search for Another Location

Airport or City:

Trip Planner

Search our weather history database for the weather conditions in past years. The results will help you decide how hot, cold, wet, or windy it might be!

Date:

Astronomy

Dec. 23, 2013 Rise Set
Actual Time 7:41 AM CST 4:57 PM CST
Civil Twilight 7:10 AM CST 5:28 PM CST
Nautical Twilight 6:36 AM CST 6:02 PM CST
Astronomical Twilight 6:02 AM CST 6:35 PM CST
Moon 11:09 PM CST (12/23) 11:05 AM CST (12/23)
Length of Visible Light 10h 17m
Length of Day
9h 15m
Waning Gibbous, 68% of the Moon is Illuminated
Dec 23
Waning Gibbous
Dec 25
Last Quarter
Jan 1
New
Jan 7
First Quarter
Jan 15
Full

Hourly Weather History & Observations

Time (CST) Temp. Windchill Dew Point Humidity Pressure Visibility Wind Dir Wind Speed Gust Speed Precip Events Conditions
12:15 AM 8.6 °F -4.7 °F 1.4 °F 73% 30.39 in 10.0 mi NNW 9.2 mph - N/A   Overcast
12:35 AM 8.6 °F -4.7 °F 1.4 °F 73% 30.40 in 10.0 mi NNW 9.2 mph - N/A   Overcast
12:55 AM 8.6 °F -3.7 °F 1.4 °F 73% 30.40 in 10.0 mi NNW 8.1 mph - N/A   Overcast
1:15 AM 8.6 °F -6.3 °F 1.4 °F 73% 30.39 in 10.0 mi NNW 11.5 mph - N/A   Overcast
1:35 AM 6.8 °F -5.9 °F 1.4 °F 79% 30.41 in 10.0 mi NNW 8.1 mph 15.0 mph N/A   Overcast
1:55 AM 6.8 °F -7.8 °F -0.4 °F 72% 30.42 in 10.0 mi NNW 10.4 mph - N/A   Mostly Cloudy
2:15 AM 6.8 °F -7.8 °F -0.4 °F 72% 30.43 in 10.0 mi NNW 10.4 mph 17.3 mph N/A   Overcast
2:35 AM 6.8 °F -10.0 °F -0.4 °F 72% 30.44 in 10.0 mi NNW 13.8 mph - N/A   Mostly Cloudy
2:55 AM 6.8 °F -9.3 °F -0.4 °F 72% 30.44 in 10.0 mi NNW 12.7 mph 18.4 mph N/A   Overcast
3:15 AM 6.8 °F -8.6 °F -0.4 °F 72% 30.46 in 10.0 mi NW 11.5 mph - N/A   Overcast
3:35 AM 6.8 °F -9.3 °F -0.4 °F 72% 30.47 in 10.0 mi NNW 12.7 mph - N/A   Overcast
3:55 AM 5.0 °F -13.0 °F -2.2 °F 72% 30.47 in 10.0 mi NW 15.0 mph 21.9 mph N/A   Overcast
4:15 AM 5.0 °F -10.0 °F -2.2 °F 72% 30.46 in 10.0 mi NNW 10.4 mph - N/A   Overcast
4:35 AM 5.0 °F -11.6 °F -2.2 °F 72% 30.48 in 10.0 mi NNW 12.7 mph 18.4 mph N/A   Overcast
4:55 AM 5.0 °F -10.0 °F -2.2 °F 72% 30.49 in 10.0 mi NNW 10.4 mph - N/A   Overcast
5:15 AM 5.0 °F -10.0 °F -2.2 °F 72% 30.49 in 10.0 mi NW 10.4 mph - N/A   Overcast
5:35 AM 5.0 °F -10.8 °F -2.2 °F 72% 30.49 in 10.0 mi NNW 11.5 mph 17.3 mph N/A   Overcast
5:55 AM 5.0 °F -10.8 °F -2.2 °F 72% 30.51 in 10.0 mi NW 11.5 mph - N/A   Overcast
6:15 AM 5.0 °F -9.1 °F -2.2 °F 72% 30.51 in 10.0 mi NNW 9.2 mph - N/A   Overcast
6:35 AM 5.0 °F -10.0 °F -2.2 °F 72% 30.53 in 10.0 mi NNW 10.4 mph - N/A Snow Light Snow
6:55 AM 5.0 °F -10.0 °F -2.2 °F 72% 30.53 in 10.0 mi NW 10.4 mph - N/A   Overcast
7:15 AM 5.0 °F -9.1 °F -2.2 °F 72% 30.53 in 10.0 mi NNW 9.2 mph - N/A   Overcast
7:35 AM 5.0 °F -10.0 °F -2.2 °F 72% 30.53 in 10.0 mi NNW 10.4 mph - N/A   Overcast
7:55 AM 5.0 °F -10.0 °F -2.2 °F 72% 30.56 in 10.0 mi NW 10.4 mph - N/A   Overcast
8:15 AM 5.0 °F -10.0 °F -2.2 °F 72% 30.56 in 10.0 mi NW 10.4 mph 20.7 mph N/A   Overcast
8:35 AM 5.0 °F -13.0 °F -4.0 °F 66% 30.57 in 10.0 mi NW 15.0 mph - N/A   Overcast
8:55 AM 5.0 °F -13.6 °F -4.0 °F 66% 30.57 in 10.0 mi NW 16.1 mph 24.2 mph N/A   Overcast
9:15 AM 3.2 °F -15.3 °F -4.0 °F 72% 30.59 in 10.0 mi NNW 15.0 mph - N/A   Scattered Clouds
9:35 AM 3.2 °F -14.6 °F -4.0 °F 72% 30.60 in 10.0 mi NW 13.8 mph - N/A   Clear
9:55 AM 3.2 °F -15.3 °F -5.8 °F 66% 30.60 in 10.0 mi NW 15.0 mph - N/A   Clear
10:15 AM 3.2 °F -13.9 °F -7.6 °F 61% 30.61 in 10.0 mi NW 12.7 mph 21.9 mph N/A   Clear
10:35 AM 3.2 °F -15.3 °F -7.6 °F 61% 30.61 in 10.0 mi NW 15.0 mph 23.0 mph N/A   Clear
10:55 AM 3.2 °F -12.2 °F -7.6 °F 61% 30.61 in 10.0 mi NW 10.4 mph - N/A   Clear
11:15 AM 3.2 °F -13.1 °F -7.6 °F 61% 30.62 in 10.0 mi NW 11.5 mph 20.7 mph N/A   Clear
11:35 AM 3.2 °F -14.6 °F -7.6 °F 61% 30.61 in 10.0 mi NW 13.8 mph - N/A   Clear
11:55 AM 5.0 °F -10.8 °F -5.8 °F 61% 30.61 in 10.0 mi WNW 11.5 mph - N/A   Clear
12:15 PM 5.0 °F -10.0 °F -5.8 °F 61% 30.60 in 10.0 mi WNW 10.4 mph - N/A   Clear
12:35 PM 5.0 °F -11.6 °F -5.8 °F 61% 30.60 in 10.0 mi West 12.7 mph - N/A   Clear
12:55 PM 5.0 °F -10.8 °F -7.6 °F 56% 30.59 in 10.0 mi NW 11.5 mph - N/A   Clear
1:15 PM 5.0 °F -10.8 °F -5.8 °F 61% 30.59 in 10.0 mi WNW 11.5 mph - N/A   Clear
1:35 PM 6.8 °F -3.5 °F -5.8 °F 56% 30.58 in 10.0 mi WNW 5.8 mph 15.0 mph N/A   Clear
1:55 PM 6.8 °F -6.9 °F -7.6 °F 52% 30.58 in 10.0 mi NW 9.2 mph 15.0 mph N/A   Clear
2:15 PM 6.8 °F -6.9 °F -5.8 °F 56% 30.57 in 10.0 mi WNW 9.2 mph - N/A   Clear
2:35 PM 6.8 °F -4.8 °F -5.8 °F 56% 30.57 in 10.0 mi NW 6.9 mph - N/A   Clear
2:55 PM 6.8 °F -8.6 °F -5.8 °F 56% 30.57 in 10.0 mi NW 11.5 mph - N/A   Clear
3:15 PM 6.8 °F -6.9 °F -7.6 °F 52% 30.57 in 10.0 mi WNW 9.2 mph - N/A   Clear
3:35 PM 6.8 °F -6.9 °F -7.6 °F 52% 30.58 in 10.0 mi NW 9.2 mph - N/A   Clear
3:55 PM 6.8 °F -5.9 °F -5.8 °F 56% 30.58 in 10.0 mi WNW 8.1 mph - N/A   Clear
4:15 PM 6.8 °F -3.5 °F -5.8 °F 56% 30.58 in 10.0 mi WNW 5.8 mph - N/A   Clear
4:35 PM 6.8 °F -2.0 °F -5.8 °F 56% 30.59 in 10.0 mi WNW 4.6 mph - N/A   Clear
4:55 PM 5.0 °F -2.1 °F -5.8 °F 61% 30.59 in 10.0 mi West 3.5 mph - N/A   Clear
5:15 PM 1.4 °F - -9.4 °F 61% 30.58 in 10.0 mi Calm Calm - N/A   Clear
5:35 PM -4.0 °F - -11.2 °F 71% 30.58 in 10.0 mi Calm Calm - N/A   Clear
5:55 PM -2.2 °F - -7.6 °F 78% 30.59 in 10.0 mi Calm Calm - N/A   Clear
6:15 PM -7.6 °F - -14.8 °F 71% 30.59 in 10.0 mi Calm Calm - N/A   Clear
6:35 PM -9.4 °F -18.6 °F -14.8 °F 77% 30.60 in 10.0 mi South 3.5 mph - N/A   Clear
6:55 PM -13.0 °F - -16.6 °F 84% 30.60 in 10.0 mi Calm Calm - N/A   Clear
7:15 PM -13.0 °F - -16.6 °F 84% 30.60 in 10.0 mi Calm Calm - N/A   Clear
7:35 PM -14.8 °F -24.8 °F -18.4 °F 84% 30.60 in 10.0 mi South 3.5 mph - N/A   Clear
7:55 PM -16.6 °F - -20.2 °F 84% 30.60 in 10.0 mi Calm Calm - N/A   Clear
8:15 PM -13.0 °F -22.7 °F -16.6 °F 84% 30.61 in 10.0 mi SSW 3.5 mph - N/A   Clear
8:35 PM -14.8 °F -27.2 °F -20.2 °F 77% 30.61 in 10.0 mi SSW 4.6 mph - N/A   Clear
8:55 PM -16.6 °F - -22.0 °F 76% 30.60 in 10.0 mi Calm Calm - N/A   Clear
9:15 PM -16.6 °F - -20.2 °F 84% 30.60 in 10.0 mi Calm Calm - N/A   Clear
9:35 PM -16.6 °F - -20.2 °F 84% 30.60 in 10.0 mi Calm Calm - N/A   Clear
9:55 PM -16.6 °F - -22.0 °F 76% 30.60 in 10.0 mi Calm Calm - N/A   Clear
10:15 PM -18.4 °F - -22.0 °F 84% 30.61 in 10.0 mi Calm Calm - N/A   Clear
10:35 PM -20.2 °F - -23.8 °F 83% 30.60 in 10.0 mi Calm Calm - N/A   Clear
10:55 PM -18.4 °F - -23.8 °F 76% 30.60 in 10.0 mi Calm Calm - N/A   Clear
11:15 PM -18.4 °F - -23.8 °F 76% 30.60 in 10.0 mi Calm Calm - N/A   Clear
11:35 PM -20.2 °F - -23.8 °F 83% 30.60 in 10.0 mi Calm Calm - N/A   Clear
11:55 PM -20.2 °F - -23.8 °F 83% 30.59 in 10.0 mi Calm Calm - N/A   Clear